Fairfax, IA (52228)

11:51 PM CST on December 07, 2016 (GMT -0600)
Rockhurst Dr SW - Stoney Point | | Change Station

Elev 830 ft 41.97 °N, 91.76 °W | Updated 22 seconds ago

Mostly Cloudy
Mostly Cloudy
19.0 °F
Feels Like 3 °F
N
19.5
Wind Variable Wind from West
Gusts 22.6 mph

Today
High -- | Low -- °F
--% Chance of Precip.
Yesterday
High -- | Low -- °F
Precip. -- in
Pressure 30.25 in
Visibility 10.0 miles
Clouds Mostly Cloudy 2800 ft
Windchill 3 °F
Dew Point -0 °F
Humidity 42%
Rainfall 0.00 in
Snow Depth Not available.
7:21 AM 4:35 PM
First Quarter, 60% visible
SPECI KCID 080511Z AUTO 29015G25KT 10SM BKN028 M08/M11 A3025 RMK AO2 T10781111
Pressure 30.25 in
Visibility 10.0 miles
Clouds Mostly Cloudy 2800 ft
Windchill 3 °F
Dew Point -0 °F
Humidity 42%
Rainfall 0.00 in
Snow Depth Not available.
7:21 AM 4:35 PM
First Quarter, 60% visible
SPECI KCID 080511Z AUTO 29015G25KT 10SM BKN028 M08/M11 A3025 RMK AO2 T10781111

10-Day Weather Forecast

Almanac

Astronomy

Dec. 07, 2016 Rise Set
Actual Time
Civil Twilight
Nautical Twilight
Astronomical Twilight
Moon
Length of Visible Light
Length of Day
Tomorrow will be .
, % of the Moon is Illuminated

Today's Extremes

State Highs State Lows

Community

WunderPhotos

Upload Photos

1,956,259 photos uploaded!

WunderBlog® & News

Nearby

Air Quality

  Air Quality AQ Index Pollutant
Not available.

Snow Depth

Station Depth Elevation

Earthquake Activity

City Distance Mag. Time & Date
Minimum magnitude displayed is 2.5.

Coastal Water Temperatures

Place Temperature

Stations

Nearby Weather Stations

Station Location Temp. Windchill Dew Point Humidity Wind Precip. Elev Updated Type
                   

Watches & Warnings

There are currently no watches in effect.